Weather in Zahara de los Atunes

Spain     36°08′11″N   5°50′47″W
temp.,
°C
wind,
m/s
gust,
m/s
humid.,
%
clouds,
%
prec.,
mm/h
press.,
hPa
HPBL,
m
18 april, sun
sun1823:00+12nnw11945 0.0 101912
02:00+12nne119497 0.0 101912
05:00+12nne119361 0.0 101711
08:00+11ne1193100 0.0 101812
11:00+18ese1265100 0.0 1019468
14:00+22sw2242100 0.0 10191585
17:00+22sw334897 0.0 10181496
20:00+19sw116759 0.0 1019107
19 april, mon
mon1923:00+13e22885 0.0 102118
02:00+11e229269 0.0 102034
05:00+11ene2296100 0.0 101938
08:00+11e2297100 0.0 101950
11:00+18ese22605 0.0 1019553
14:00+23wsw33425 0.0 10181527
17:00+22w444777 0.0 10161109
20:00+17w3575100 0.0 1017351
20 april, tue
tue2023:00+12w119224 0.0 101811
02:00+11ssw008836 0.0 101711
05:00+11ssw11915 0.0 101614
08:00+12ssw119656 0.0 101616
11:00+18wnw345985 0.0 1016631
14:00+22w5643100 0.0 10151480
17:00+21w5646100 0.0 10141266
20:00+17w4571100 0.0 1015507
21 april, wed
wed2123:00+12n00945 0.0 101613
02:00+12ese00955 0.0 101512
05:00+12s009640 0.0 101412
08:00+12s0097100 0.0 101414
11:00+18wsw2268100 0.0 1015557
14:00+21wsw4451100 0.0 10141330
17:00+19w335199 0.0 1014704
20:00+17wsw345986 0.0 1014317
22 april, thu
thu2223:00+11nne11915 0.0 101616
02:00+11ne11925 0.0 101611
05:00+11e11920 0.0 101512
08:00+11e11945 0.0 101613
11:00+19ssw116741 0.0 1016678
14:00+21sw4255100 0.1 10161525
17:00+21ssw325568 0.1 10151419
20:00+19w1264100 0.1 1016183